STARLINK-34542, 65890

Orbit data source: Space-Track

STARLINK-34542, 65890 is a payload satellite owned by SpaceX/Seattle (US) in LEO that was launched on Tue, 07 Oct 2025 UTC via an FALCON 9 launch vehicle from the Air Force Eastern Test Range (AFETR). Payload-class satellites include a variety of spacecraft equipped with specific instruments for various scientific and technological missions. These include communications satellites like Starlink; space stations such as the ISS; scientific satellites like the Hubble; Earth observation satellites from companies like Planet Labs, Umbra, and HawkEye 360; GPS; miniature CubeSats for education and research; and military/defense satellites.

Loading next visibility...
Identifier
65890, 2025-224J
Orbit
LEO
Country
Flag of USUS
Related business
Manufacturer
SpaceX/Seattle
Mission
Operational spacecraft
Bus & Motor
STARLINK V2MO, Unknown motor
Mass
575 kg wet, ~530 kg dry
Launch date (UTC)
2025-10-07 (2 months ago)
Launch vehicle
FALCON 9
Launch site
Air Force Eastern Test Range (AFETR)
Object type
Payload
Rocket body
Debris
Shape & HBR
Unknown shape, 17.7 m
Radar Cross Section
RCS unknown

Expand to show TLE details & history
Last TLE update: 1 day ago

TLE from 1 day ago
0 STARLINK-34542
1 65890U 25224J   25338.60858103  .00054531  00000-0  18413-2 0  9992
2 65890  53.1601  93.2292 0001407  62.1069 298.0074 15.30173238 10317
Epoch: 2025-12-04T14:36Z
TLE epoch observation values (Epoch: 2025-12-04T14:36:21.400Z)
Latitude
-0.00006°
Longitude
160.47741°
Altitude
475.742 km
Speed
7.629 km/s
True Right ascension
06h 12m 54s
True Declination
0° 00' 00"
Sunlit
Object was in full shadow at epoch
Visualization orbit readout
Latitude
Unknown
Longitude
Unknown
Altitude
Unknown
Speed
Unknown
Apparent Right ascension
Unknown
Apparent Declination
Unknown
Sunlit
N/A
Visualization observer readout
Local Sidereal Time
13:13:42
Azimuth
Unknown
Elevation
Unknown
Doppler factor
Unknown
Orbital elements
Apogee altitude
476.516 km
Perigee altitude
474.587 km
Semi-major axis
6,853.688 km
Eccentricity
0.00014
Inclination
53.1601°
RAAN
93.2292°
Arg. of periapsis
62.1069°
True anomaly
297.99316°
Mean anomaly
298.0074°
Eccentric anomaly
298.00028°
Mean motion
3.82522 °/min
Orbital period
94.11 mins
BSTAR
0.0018413
Loading maneuver chart data...
Computing Atmospheric mass density...
Loading historical data...
Loading historical data...
Loading historical data...
Loading historical data...
Loading historical data...
Loading historical data...
Loading historical data...

Documentation

Showing up to 5 results
|